owner,sensor,date,latitude,longitude,vertical_datum,wind_speed,wind_to_direction,wind_speed_of_gust,qcFlag 
TABS,ioos:station:wmo:42044:1,2012-11-01T00:00:00Z,26.1914,-97.0507,0.0,5.80962133,166.9686639,7.23,'11111222,11111222,11111222' 
TABS,ioos:station:wmo:42044:1,2012-11-01T00:30:00Z,26.1914,-97.0507,0.0,5.69477831,166.1836158,7.86,'11111222,11111222,11111222' 
TABS,ioos:station:wmo:42044:1,2012-11-01T01:00:00Z,26.1914,-97.0507,0.0,5.572880763,164.4926459,7.11,'11111222,11111222,11111222' 
TABS,ioos:station:wmo:42044:1,2012-11-01T01:30:00Z,26.1914,-97.0507,0.0,5.567854165,163.1925843,7.26,'11111222,11111222,11111222' 
TABS,ioos:station:wmo:42044:1,2012-11-01T02:00:00Z,26.1914,-97.0507,0.0,5.039017761,160.1628666,6.77,'11111222,11111222,11111222' 
TABS,ioos:station:wmo:42044:1,2012-11-01T02:30:00Z,26.1914,-97.0507,0.0,5.297027468,161.0522231,6.8,'11111222,11111222,11111222' 
TABS,ioos:station:wmo:42044:1,2012-11-01T03:00:00Z,26.1914,-97.0507,0.0,5.598830235,163.9283406,7.0,'11111222,11111222,11111222' 
TABS,ioos:station:wmo:42044:1,2012-11-01T03:30:00Z,26.1914,-97.0507,0.0,5.078976275,166.5659376,6.28,'11111222,11111222,11111222' 
TABS,ioos:station:wmo:42044:1,2012-11-01T04:00:00Z,26.1914,-97.0507,0.0,5.07962597,169.2212141,6.31,'11111222,11111222,11111222' 
TABS,ioos:station:wmo:42044:1,2012-11-01T04:30:00Z,26.1914,-97.0507,0.0,5.458937626,171.5732611,7.25,'11111222,11111222,11111222' 
TABS,ioos:station:wmo:42044:1,2012-11-01T05:00:00Z,26.1914,-97.0507,0.0,5.156316515,171.5244088,6.45,'11111222,11111222,11111222' 
TABS,ioos:station:wmo:42044:1,2012-11-01T05:30:00Z,26.1914,-97.0507,0.0,5.128840025,172.944492,6.51,'11111222,11111222,11111222' 
TABS,ioos:station:wmo:42044:1,2012-11-01T06:00:00Z,26.1914,-97.0507,0.0,5.494588247,188.7939202,7.87,'11111222,11111222,11111222' 
TABS,ioos:station:wmo:42044:1,2012-11-01T06:30:00Z,26.1914,-97.0507,0.0,5.170502877,185.1043347,6.63,'11111222,11111222,11111222' 
TABS,ioos:station:wmo:42044:1,2012-11-01T07:00:00Z,26.1914,-97.0507,0.0,4.932281419,181.742948,6.38,'11111222,11111222,11111222' 
TABS,ioos:station:wmo:42044:1,2012-11-01T07:30:00Z,26.1914,-97.0507,0.0,5.090795616,178.9872299,6.35,'11111222,11111222,11111222' 
TABS,ioos:station:wmo:42044:1,2012-11-01T08:00:00Z,26.1914,-97.0507,0.0,5.26459875,182.3952104,6.51,'11111222,11111222,11111222' 
TABS,ioos:station:wmo:42044:1,2012-11-01T08:30:00Z,26.1914,-97.0507,0.0,5.063200569,177.9628845,6.33,'11111222,11111222,11111222' 
TABS,ioos:station:wmo:42044:1,2012-11-01T09:00:00Z,26.1914,-97.0507,0.0,5.109853227,185.0525051,6.35,'11111222,11111222,11111222' 
TABS,ioos:station:wmo:42044:1,2012-11-01T09:30:00Z,26.1914,-97.0507,0.0,4.685434878,184.6521339,6.16,'11111222,11111222,11111222' 
TABS,ioos:station:wmo:42044:1,2012-11-01T10:00:00Z,26.1914,-97.0507,0.0,4.964242138,185.6648527,6.26,'11111222,11111222,11111222' 
TABS,ioos:station:wmo:42044:1,2012-11-01T10:30:00Z,26.1914,-97.0507,0.0,4.486535412,189.1055983,5.83,'11111222,11111222,11111222' 
TABS,ioos:station:wmo:42044:1,2012-11-01T11:00:00Z,26.1914,-97.0507,0.0,4.119575221,195.4870609,5.51,'11111222,11111222,11111222' 
TABS,ioos:station:wmo:42044:1,2012-11-01T11:30:00Z,26.1914,-97.0507,0.0,3.851882657,191.8352146,4.88,'11111222,11111222,11111222' 
TABS,ioos:station:wmo:42044:1,2012-11-01T12:00:00Z,26.1914,-97.0507,0.0,4.799802079,103.8629212,9.93,'11111222,11111222,11111222' 
TABS,ioos:station:wmo:42044:1,2012-11-01T12:30:00Z,26.1914,-97.0507,0.0,9.262235151,105.852312,12.28,'11111222,11111222,11111222' 
TABS,ioos:station:wmo:42044:1,2012-11-01T13:00:00Z,26.1914,-97.0507,0.0,7.368045874,139.3484037,10.63,'11111222,11111222,11111222' 
TABS,ioos:station:wmo:42044:1,2012-11-01T13:30:00Z,26.1914,-97.0507,0.0,5.173248496,147.231788,6.67,'11111222,11111222,11111222' 
TABS,ioos:station:wmo:42044:1,2012-11-01T14:00:00Z,26.1914,-97.0507,0.0,5.279412846,157.8562511,6.74,'11111222,11111222,11111222' 
TABS,ioos:station:wmo:42044:1,2012-11-01T14:30:00Z,26.1914,-97.0507,0.0,1.318673576,198.5725155,2.01,'11111222,11111222,11111222' 
TABS,ioos:station:wmo:42044:1,2012-11-01T15:00:00Z,26.1914,-97.0507,0.0,0.872066511,153.4352214,1.98,'11111222,11111222,11111222' 
TABS,ioos:station:wmo:42044:1,2012-11-01T15:30:00Z,26.1914,-97.0507,0.0,2.291724242,147.8358952,3.95,'11111222,11111222,11111222' 
TABS,ioos:station:wmo:42044:1,2012-11-01T16:00:00Z,26.1914,-97.0507,0.0,4.915292463,155.9904355,6.49,'11111222,11111222,11111222' 
TABS,ioos:station:wmo:42044:1,2012-11-01T16:30:00Z,26.1914,-97.0507,0.0,6.832876407,169.1178759,8.54,'11111222,11111222,11111222' 
TABS,ioos:station:wmo:42044:1,2012-11-01T17:00:00Z,26.1914,-97.0507,0.0,5.254950047,152.9476107,7.01,'11111222,11111222,11111222' 
TABS,ioos:station:wmo:42044:1,2012-11-01T17:30:00Z,26.1914,-97.0507,0.0,4.201773435,155.3870333,5.36,'11111222,11111222,11111222' 
TABS,ioos:station:wmo:42044:1,2012-11-01T18:00:00Z,26.1914,-97.0507,0.0,4.460011211,152.0562545,5.81,'11111222,11111222,11111222' 
TABS,ioos:station:wmo:42044:1,2012-11-01T18:30:00Z,26.1914,-97.0507,0.0,4.314776935,165.6419366,5.84,'11111222,11111222,11111222' 
TABS,ioos:station:wmo:42044:1,2012-11-01T19:00:00Z,26.1914,-97.0507,0.0,4.452459994,169.649349,5.43,'11111222,11111222,11111222' 
TABS,ioos:station:wmo:42044:1,2012-11-01T19:30:00Z,26.1914,-97.0507,0.0,3.963533777,166.8756039,5.21,'11111222,11111222,11111222' 
TABS,ioos:station:wmo:42044:1,2012-11-01T20:00:00Z,26.1914,-97.0507,0.0,3.358764654,154.0455381,4.41,'11111222,11111222,11111222' 
TABS,ioos:station:wmo:42044:1,2012-11-01T20:30:00Z,26.1914,-97.0507,0.0,2.954081922,142.703696,4.08,'11111222,11111222,11111222' 
TABS,ioos:station:wmo:42044:1,2012-11-01T21:00:00Z,26.1914,-97.0507,0.0,3.600111109,124.1318158,4.79,'11111222,11111222,11111222' 
TABS,ioos:station:wmo:42044:1,2012-11-01T21:30:00Z,26.1914,-97.0507,0.0,3.685552876,120.6708307,5.06,'11111222,11111222,11111222' 
TABS,ioos:station:wmo:42044:1,2012-11-01T22:00:00Z,26.1914,-97.0507,0.0,4.389533005,125.3559326,5.66,'11111222,11111222,11111222' 
TABS,ioos:station:wmo:42044:1,2012-11-01T22:30:00Z,26.1914,-97.0507,0.0,4.860010288,112.5023409,6.45,'11111222,11111222,11111222' 
TABS,ioos:station:wmo:42044:1,2012-11-01T23:00:00Z,26.1914,-97.0507,0.0,5.03591104,117.1759976,6.55,'11111222,11111222,11111222' 
TABS,ioos:station:wmo:42044:1,2012-11-01T23:30:00Z,26.1914,-97.0507,0.0,5.069210984,114.8465507,6.7,'11111222,11111222,11111222' 
TABS,ioos:station:wmo:42044:1,2012-11-02T00:00:00Z,26.1914,-97.0507,0.0,5.342929908,113.4946558,7.14,'11111222,11111222,11111222' 
TABS,ioos:station:wmo:42044:1,2012-11-02T00:30:00Z,26.1914,-97.0507,0.0,5.649654857,123.8873011,7.36,'11111222,11111222,11111222' 
TABS,ioos:station:wmo:42044:1,2012-11-02T01:00:00Z,26.1914,-97.0507,0.0,6.049107372,130.6427149,7.68,'11111222,11111222,11111222' 
TABS,ioos:station:wmo:42044:1,2012-11-02T01:30:00Z,26.1914,-97.0507,0.0,6.352086271,133.4693934,8.17,'11111222,11111222,11111222' 
TABS,ioos:station:wmo:42044:1,2012-11-02T02:00:00Z,26.1914,-97.0507,0.0,6.440496875,143.8421096,7.94,'11111222,11111222,11111222' 
TABS,ioos:station:wmo:42044:1,2012-11-02T02:30:00Z,26.1914,-97.0507,0.0,6.272878127,144.8660996,8.47,'11111222,11111222,11111222' 
TABS,ioos:station:wmo:42044:1,2012-11-02T03:00:00Z,26.1914,-97.0507,0.0,6.692458442,146.3339663,8.12,'11111222,11111222,11111222' 
TABS,ioos:station:wmo:42044:1,2012-11-02T03:30:00Z,26.1914,-97.0507,0.0,6.401976257,147.1790232,8.02,'11111222,11111222,11111222' 
TABS,ioos:station:wmo:42044:1,2012-11-02T04:00:00Z,26.1914,-97.0507,0.0,6.444850658,150.3325868,8.54,'11111222,11111222,11111222' 
TABS,ioos:station:wmo:42044:1,2012-11-02T04:30:00Z,26.1914,-97.0507,0.0,6.412316274,155.3936256,8.48,'11111222,11111222,11111222' 
TABS,ioos:station:wmo:42044:1,2012-11-02T05:00:00Z,26.1914,-97.0507,0.0,6.293369527,154.4938691,7.91,'11111222,11111222,11111222' 
TABS,ioos:station:wmo:42044:1,2012-11-02T05:30:00Z,26.1914,-97.0507,0.0,6.780398218,158.9991499,8.37,'11111222,11111222,11111222' 
TABS,ioos:station:wmo:42044:1,2012-11-02T06:00:00Z,26.1914,-97.0507,0.0,6.577355092,158.0370917,8.16,'11111222,11111222,11111222' 
TABS,ioos:station:wmo:42044:1,2012-11-02T06:30:00Z,26.1914,-97.0507,0.0,6.309239257,160.8473518,8.0,'11111222,11111222,11111222' 
TABS,ioos:station:wmo:42044:1,2012-11-02T07:00:00Z,26.1914,-97.0507,0.0,6.276256846,169.4422666,7.91,'11111222,11111222,11111222' 
TABS,ioos:station:wmo:42044:1,2012-11-02T07:30:00Z,26.1914,-97.0507,0.0,5.997074287,167.2849032,7.74,'11111222,11111222,11111222' 
TABS,ioos:station:wmo:42044:1,2012-11-02T08:00:00Z,26.1914,-97.0507,0.0,6.275866474,167.2040675,8.13,'11111222,11111222,11111222' 
TABS,ioos:station:wmo:42044:1,2012-11-02T08:30:00Z,26.1914,-97.0507,0.0,6.522100889,162.7877227,7.77,'11111222,11111222,11111222' 
TABS,ioos:station:wmo:42044:1,2012-11-02T09:00:00Z,26.1914,-97.0507,0.0,6.2368662,167.1226803,8.14,'11111222,11111222,11111222' 
TABS,ioos:station:wmo:42044:1,2012-11-02T09:30:00Z,26.1914,-97.0507,0.0,5.88007653,167.0275344,7.79,'11111222,11111222,11111222' 
TABS,ioos:station:wmo:42044:1,2012-11-02T10:00:00Z,26.1914,-97.0507,0.0,5.743448441,165.4800954,7.32,'11111222,11111222,11111222' 
TABS,ioos:station:wmo:42044:1,2012-11-02T10:30:00Z,26.1914,-97.0507,0.0,5.841318344,171.0378034,7.45,'11111222,11111222,11111222' 
TABS,ioos:station:wmo:42044:1,2012-11-02T11:00:00Z,26.1914,-97.0507,0.0,5.480556541,176.4434482,6.99,'11111222,11111222,11111222' 
TABS,ioos:station:wmo:42044:1,2012-11-02T11:30:00Z,26.1914,-97.0507,0.0,5.095193814,182.5874482,6.5,'11111222,11111222,11111222' 
TABS,ioos:station:wmo:42044:1,2012-11-02T12:00:00Z,26.1914,-97.0507,0.0,5.010488998,179.1997246,6.36,'11111222,11111222,11111222' 
TABS,ioos:station:wmo:42044:1,2012-11-02T12:30:00Z,26.1914,-97.0507,0.0,5.313398159,182.0494629,6.76,'11111222,11111222,11111222' 
TABS,ioos:station:wmo:42044:1,2012-11-02T13:00:00Z,26.1914,-97.0507,0.0,5.235054919,177.4821391,6.52,'11111222,11111222,11111222' 
TABS,ioos:station:wmo:42044:1,2012-11-02T13:30:00Z,26.1914,-97.0507,0.0,4.931227028,178.7220207,6.02,'11111222,11111222,11111222' 
TABS,ioos:station:wmo:42044:1,2012-11-02T14:00:00Z,26.1914,-97.0507,0.0,5.063951027,177.7367387,6.52,'11111222,11111222,11111222' 
TABS,ioos:station:wmo:42044:1,2012-11-02T14:30:00Z,26.1914,-97.0507,0.0,4.935838328,166.5270839,6.24,'11111222,11111222,11111222' 
TABS,ioos:station:wmo:42044:1,2012-11-02T15:00:00Z,26.1914,-97.0507,0.0,4.604096002,175.5156149,5.68,'11111222,11111222,11111222' 
TABS,ioos:station:wmo:42044:1,2012-11-02T15:30:00Z,26.1914,-97.0507,0.0,4.762877282,175.7860418,5.86,'11111222,11111222,11111222' 
TABS,ioos:station:wmo:42044:1,2012-11-02T16:00:00Z,26.1914,-97.0507,0.0,4.504719747,171.0606664,5.41,'11111222,11111222,11111222' 
TABS,ioos:station:wmo:42044:1,2012-11-02T16:30:00Z,26.1914,-97.0507,0.0,4.591481242,167.9316281,5.78,'11111222,11111222,11111222' 
TABS,ioos:station:wmo:42044:1,2012-11-02T17:00:00Z,26.1914,-97.0507,0.0,4.976675597,172.1469155,6.27,'11111222,11111222,11111222' 
TABS,ioos:station:wmo:42044:1,2012-11-02T17:30:00Z,26.1914,-97.0507,0.0,5.104684123,162.5591815,6.44,'11111222,11111222,11111222' 
TABS,ioos:station:wmo:42044:1,2012-11-02T18:00:00Z,26.1914,-97.0507,0.0,5.429963167,158.7279007,6.75,'11111222,11111222,11111222' 
TABS,ioos:station:wmo:42044:1,2012-11-02T18:30:00Z,26.1914,-97.0507,0.0,5.329887428,164.660273,7.01,'11111222,11111222,11111222' 
TABS,ioos:station:wmo:42044:1,2012-11-02T19:00:00Z,26.1914,-97.0507,0.0,5.573831716,160.0698444,7.43,'11111222,11111222,11111222' 
TABS,ioos:station:wmo:42044:1,2012-11-02T19:30:00Z,26.1914,-97.0507,0.0,6.103277808,161.2684388,7.65,'11111222,11111222,11111222' 
TABS,ioos:station:wmo:42044:1,2012-11-02T20:00:00Z,26.1914,-97.0507,0.0,5.913459225,161.5653047,7.52,'11111222,11111222,11111222' 
TABS,ioos:station:wmo:42044:1,2012-11-02T20:30:00Z,26.1914,-97.0507,0.0,6.299285674,161.392728,7.66,'11111222,11111222,11111222' 
TABS,ioos:station:wmo:42044:1,2012-11-02T21:00:00Z,26.1914,-97.0507,0.0,6.034848797,156.8764726,7.99,'11111222,11111222,11111222' 
TABS,ioos:station:wmo:42044:1,2012-11-02T21:30:00Z,26.1914,-97.0507,0.0,5.954771196,156.965917,7.77,'11111222,11111222,11111222' 
TABS,ioos:station:wmo:42044:1,2012-11-02T22:00:00Z,26.1914,-97.0507,0.0,6.195046408,156.7045219,8.24,'11111222,11111222,11111222' 
TABS,ioos:station:wmo:42044:1,2012-11-02T22:30:00Z,26.1914,-97.0507,0.0,6.122850643,156.6173654,7.62,'11111222,11111222,11111222' 
TABS,ioos:station:wmo:42044:1,2012-11-02T23:00:00Z,26.1914,-97.0507,0.0,6.404943403,158.7636501,8.56,'11111222,11111222,11111222' 
TABS,ioos:station:wmo:42044:1,2012-11-02T23:30:00Z,26.1914,-97.0507,0.0,6.30809797,158.030187,7.89,'11111222,11111222,11111222' 
TABS,ioos:station:wmo:42044:1,2012-11-03T00:00:00Z,26.1914,-97.0507,0.0,6.820043988,153.6230753,8.8,'11111222,11111222,11111222' 
TABS,ioos:station:wmo:42044:1,2012-11-03T00:30:00Z,26.1914,-97.0507,0.0,7.16799135,155.2586243,9.2,'11111222,11111222,11111222' 
TABS,ioos:station:wmo:42044:1,2012-11-03T01:00:00Z,26.1914,-97.0507,0.0,7.053715333,155.7243742,9.27,'11111222,11111222,11111222' 
TABS,ioos:station:wmo:42044:1,2012-11-03T01:30:00Z,26.1914,-97.0507,0.0,6.468941181,154.9405696,8.19,'11111222,11111222,11111222' 
TABS,ioos:station:wmo:42044:1,2012-11-03T02:00:00Z,26.1914,-97.0507,0.0,6.376989886,158.6660163,8.26,'11111222,11111222,11111222' 
TABS,ioos:station:wmo:42044:1,2012-11-03T02:30:00Z,26.1914,-97.0507,0.0,6.003765485,154.9718449,7.76,'11111222,11111222,11111222' 
TABS,ioos:station:wmo:42044:1,2012-11-03T03:00:00Z,26.1914,-97.0507,0.0,7.182290721,160.7327978,9.16,'11111222,11111222,11111222' 
TABS,ioos:station:wmo:42044:1,2012-11-03T03:30:00Z,26.1914,-97.0507,0.0,6.908610569,164.8978767,8.79,'11111222,11111222,11111222' 
TABS,ioos:station:wmo:42044:1,2012-11-03T04:00:00Z,26.1914,-97.0507,0.0,7.288326282,165.620802,9.63,'11111222,11111222,11111222' 
TABS,ioos:station:wmo:42044:1,2012-11-03T04:30:00Z,26.1914,-97.0507,0.0,7.631677404,162.5387384,9.36,'11111222,11111222,11111222' 
TABS,ioos:station:wmo:42044:1,2012-11-03T05:00:00Z,26.1914,-97.0507,0.0,7.136455703,160.0926028,8.69,'11111222,11111222,11111222' 
TABS,ioos:station:wmo:42044:1,2012-11-03T05:30:00Z,26.1914,-97.0507,0.0,6.92221063,163.2930773,8.73,'11111222,11111222,11111222' 
TABS,ioos:station:wmo:42044:1,2012-11-03T06:00:00Z,26.1914,-97.0507,0.0,7.165479747,157.0851578,8.63,'11111222,11111222,11111222' 
TABS,ioos:station:wmo:42044:1,2012-11-03T06:30:00Z,26.1914,-97.0507,0.0,7.406078585,161.4185186,9.1,'11111222,11111222,11111222' 
TABS,ioos:station:wmo:42044:1,2012-11-03T07:00:00Z,26.1914,-97.0507,0.0,7.188915078,160.5823259,8.75,'11111222,11111222,11111222' 
TABS,ioos:station:wmo:42044:1,2012-11-03T07:30:00Z,26.1914,-97.0507,0.0,7.326991197,159.8835323,9.19,'11111222,11111222,11111222' 
TABS,ioos:station:wmo:42044:1,2012-11-03T08:00:00Z,26.1914,-97.0507,0.0,6.816193953,162.7615597,8.29,'11111222,11111222,11111222' 
TABS,ioos:station:wmo:42044:1,2012-11-03T08:30:00Z,26.1914,-97.0507,0.0,6.570700115,163.1924277,8.24,'11111222,11111222,11111222' 
TABS,ioos:station:wmo:42044:1,2012-11-03T09:00:00Z,26.1914,-97.0507,0.0,6.922383982,172.9470741,8.69,'11111222,11111222,11111222' 
TABS,ioos:station:wmo:42044:1,2012-11-03T09:30:00Z,26.1914,-97.0507,0.0,6.447030324,173.856318,7.93,'11111222,11111222,11111222' 
TABS,ioos:station:wmo:42044:1,2012-11-03T10:00:00Z,26.1914,-97.0507,0.0,6.713516217,174.2726466,8.57,'11111222,11111222,11111222' 
TABS,ioos:station:wmo:42044:1,2012-11-03T10:30:00Z,26.1914,-97.0507,0.0,6.004348424,164.644697,7.75,'11111222,11111222,11111222' 
TABS,ioos:station:wmo:42044:1,2012-11-03T11:00:00Z,26.1914,-97.0507,0.0,5.805945229,175.7528906,7.53,'11111222,11111222,11111222' 
TABS,ioos:station:wmo:42044:1,2012-11-03T11:30:00Z,26.1914,-97.0507,0.0,5.705059158,168.4736495,7.18,'11111222,11111222,11111222' 
TABS,ioos:station:wmo:42044:1,2012-11-03T12:00:00Z,26.1914,-97.0507,0.0,5.936876283,162.7556131,7.19,'11111222,11111222,11111222' 
TABS,ioos:station:wmo:42044:1,2012-11-03T12:30:00Z,26.1914,-97.0507,0.0,5.156316515,165.8562,7.16,'11111222,11111222,11111222' 
TABS,ioos:station:wmo:42044:1,2012-11-03T13:00:00Z,26.1914,-97.0507,0.0,4.330404138,176.0277238,5.35,'11111222,11111222,11111222' 
TABS,ioos:station:wmo:42044:1,2012-11-03T13:30:00Z,26.1914,-97.0507,0.0,6.812987597,127.8458126,9.06,'11111222,11111222,11111222' 
TABS,ioos:station:wmo:42044:1,2012-11-03T14:00:00Z,26.1914,-97.0507,0.0,5.664459374,134.2135336,7.14,'11111222,11111222,11111222' 
TABS,ioos:station:wmo:42044:1,2012-11-03T14:30:00Z,26.1914,-97.0507,0.0,6.52724291,135.8072433,8.83,'11111222,11111222,11111222' 
TABS,ioos:station:wmo:42044:1,2012-11-03T15:00:00Z,26.1914,-97.0507,0.0,5.741149711,146.3655798,7.44,'11111222,11111222,11111222' 
TABS,ioos:station:wmo:42044:1,2012-11-03T15:30:00Z,26.1914,-97.0507,0.0,6.357680395,151.7422469,7.88,'11111222,11111222,11111222' 
TABS,ioos:station:wmo:42044:1,2012-11-03T16:00:00Z,26.1914,-97.0507,0.0,5.056184332,145.9645034,6.93,'11111222,11111222,11111222' 
TABS,ioos:station:wmo:42044:1,2012-11-03T16:30:00Z,26.1914,-97.0507,0.0,5.495343483,168.2404549,7.2,'11111222,11111222,11111222' 
TABS,ioos:station:wmo:42044:1,2012-11-03T17:00:00Z,26.1914,-97.0507,0.0,5.563640894,152.8364945,7.24,'11111222,11111222,11111222' 
TABS,ioos:station:wmo:42044:1,2012-11-03T17:30:00Z,26.1914,-97.0507,0.0,6.042598779,176.2996761,9.17,'11111222,11111222,11111222' 
TABS,ioos:station:wmo:42044:1,2012-11-03T18:00:00Z,26.1914,-97.0507,0.0,4.232658739,163.1065198,5.63,'11111222,11111222,11111222' 
TABS,ioos:station:wmo:42044:1,2012-11-03T18:30:00Z,26.1914,-97.0507,0.0,4.05720347,161.6099623,5.01,'11111222,11111222,11111222' 
TABS,ioos:station:wmo:42044:1,2012-11-03T19:00:00Z,26.1914,-97.0507,0.0,5.973692326,155.3658043,7.55,'11111222,11111222,11111222' 
TABS,ioos:station:wmo:42044:1,2012-11-03T19:30:00Z,26.1914,-97.0507,0.0,6.947373604,140.4903948,8.97,'11111222,11111222,11111222' 
TABS,ioos:station:wmo:42044:1,2012-11-03T20:00:00Z,26.1914,-97.0507,0.0,6.685095362,156.2727371,8.53,'11111222,11111222,11111222' 
TABS,ioos:station:wmo:42044:1,2012-11-03T20:30:00Z,26.1914,-97.0507,0.0,7.302362631,159.0585136,9.0,'11111222,11111222,11111222' 
TABS,ioos:station:wmo:42044:1,2012-11-03T21:00:00Z,26.1914,-97.0507,0.0,6.809948605,156.1830025,8.3,'11111222,11111222,11111222' 
TABS,ioos:station:wmo:42044:1,2012-11-03T21:30:00Z,26.1914,-97.0507,0.0,6.623329978,155.5634721,8.62,'11111222,11111222,11111222' 
TABS,ioos:station:wmo:42044:1,2012-11-03T22:00:00Z,26.1914,-97.0507,0.0,6.722358217,158.6261872,8.28,'11111222,11111222,11111222' 
TABS,ioos:station:wmo:42044:1,2012-11-03T22:30:00Z,26.1914,-97.0507,0.0,7.490400523,163.718626,9.41,'11111222,11111222,11111222' 
TABS,ioos:station:wmo:42044:1,2012-11-03T23:00:00Z,26.1914,-97.0507,0.0,7.939773297,167.7845199,9.75,'11111222,11111222,11111222' 
TABS,ioos:station:wmo:42044:1,2012-11-03T23:30:00Z,26.1914,-97.0507,0.0,8.047707748,163.0964275,9.98,'11111222,11111222,11111222' 
TABS,ioos:station:wmo:42044:1,2012-11-04T00:00:00Z,26.1914,-97.0507,0.0,7.213910174,160.736447,8.94,'11111222,11111222,11111222' 
TABS,ioos:station:wmo:42044:1,2012-11-04T00:30:00Z,26.1914,-97.0507,0.0,7.475667194,161.7591979,9.63,'11111222,11111222,11111222' 
TABS,ioos:station:wmo:42044:1,2012-11-04T01:00:00Z,26.1914,-97.0507,0.0,6.643530688,154.9781654,8.75,'11111222,11111222,11111222' 
TABS,ioos:station:wmo:42044:1,2012-11-04T01:30:00Z,26.1914,-97.0507,0.0,7.077294681,154.9197952,8.89,'11111222,11111222,11111222' 
TABS,ioos:station:wmo:42044:1,2012-11-04T02:00:00Z,26.1914,-97.0507,0.0,6.384958888,149.2981485,8.38,'11111222,11111222,11111222' 
TABS,ioos:station:wmo:42044:1,2012-11-04T02:30:00Z,26.1914,-97.0507,0.0,6.578814483,148.6780598,8.37,'11111222,11111222,11111222' 
TABS,ioos:station:wmo:42044:1,2012-11-04T03:00:00Z,26.1914,-97.0507,0.0,6.874314511,154.2180019,9.05,'11111222,11111222,11111222' 
TABS,ioos:station:wmo:42044:1,2012-11-04T03:30:00Z,26.1914,-97.0507,0.0,6.752962313,153.2455014,8.45,'11111222,11111222,11111222' 
TABS,ioos:station:wmo:42044:1,2012-11-04T04:00:00Z,26.1914,-97.0507,0.0,6.629034621,151.0380189,8.53,'11111222,11111222,11111222' 
TABS,ioos:station:wmo:42044:1,2012-11-04T04:30:00Z,26.1914,-97.0507,0.0,6.958886405,153.9139014,8.73,'11111222,11111222,11111222' 
TABS,ioos:station:wmo:42044:1,2012-11-04T05:00:00Z,26.1914,-97.0507,0.0,6.718965694,156.6785061,8.24,'11111222,11111222,11111222' 
TABS,ioos:station:wmo:42044:1,2012-11-04T05:30:00Z,26.1914,-97.0507,0.0,7.118658582,160.9798965,8.83,'11111222,11111222,11111222' 
TABS,ioos:station:wmo:42044:1,2012-11-04T06:00:00Z,26.1914,-97.0507,0.0,6.095842846,160.0492716,7.89,'11111222,11111222,11111222' 
TABS,ioos:station:wmo:42044:1,2012-11-04T06:30:00Z,26.1914,-97.0507,0.0,5.615300526,164.082883,7.16,'11111222,11111222,11111222' 
TABS,ioos:station:wmo:42044:1,2012-11-04T07:00:00Z,26.1914,-97.0507,0.0,5.630275304,160.2779788,7.05,'11111222,11111222,11111222' 
TABS,ioos:station:wmo:42044:1,2012-11-04T07:30:00Z,26.1914,-97.0507,0.0,5.029612311,160.1242088,6.33,'11111222,11111222,11111222' 
TABS,ioos:station:wmo:42044:1,2012-11-04T08:00:00Z,26.1914,-97.0507,0.0,5.174649747,164.6480163,6.19,'11111222,11111222,11111222' 
TABS,ioos:station:wmo:42044:1,2012-11-04T08:30:00Z,26.1914,-97.0507,0.0,4.383103923,157.1792913,5.99,'11111222,11111222,11111222' 
TABS,ioos:station:wmo:42044:1,2012-11-04T09:00:00Z,26.1914,-97.0507,0.0,4.806662043,161.5653047,6.0,'11111222,11111222,11111222' 
TABS,ioos:station:wmo:42044:1,2012-11-04T09:30:00Z,26.1914,-97.0507,0.0,4.279684568,156.010591,5.41,'11111222,11111222,11111222' 
TABS,ioos:station:wmo:42044:1,2012-11-04T10:00:00Z,26.1914,-97.0507,0.0,4.700574433,154.143885,5.84,'11111222,11111222,11111222' 
TABS,ioos:station:wmo:42044:1,2012-11-04T10:30:00Z,26.1914,-97.0507,0.0,4.828467666,157.471677,6.13,'11111222,11111222,11111222' 
TABS,ioos:station:wmo:42044:1,2012-11-04T11:00:00Z,26.1914,-97.0507,0.0,4.778085391,158.6442036,6.21,'11111222,11111222,11111222' 
TABS,ioos:station:wmo:42044:1,2012-11-04T11:30:00Z,26.1914,-97.0507,0.0,4.525803796,160.6444897,5.88,'11111222,11111222,11111222' 
TABS,ioos:station:wmo:42044:1,2012-11-04T12:00:00Z,26.1914,-97.0507,0.0,3.465385981,157.4312713,4.44,'11111222,11111222,11111222' 
TABS,ioos:station:wmo:42044:1,2012-11-04T12:30:00Z,26.1914,-97.0507,0.0,2.662818056,141.7101368,3.6,'11111222,11111222,11111222' 
TABS,ioos:station:wmo:42044:1,2012-11-04T13:00:00Z,26.1914,-97.0507,0.0,2.886260556,139.3559475,3.82,'11111222,11111222,11111222' 
TABS,ioos:station:wmo:42044:1,2012-11-04T13:30:00Z,26.1914,-97.0507,0.0,3.031996042,131.5240111,3.81,'11111222,11111222,11111222' 
TABS,ioos:station:wmo:42044:1,2012-11-04T14:00:00Z,26.1914,-97.0507,0.0,2.537892827,140.917394,3.1,'11111222,11111222,11111222' 
TABS,ioos:station:wmo:42044:1,2012-11-04T14:30:00Z,26.1914,-97.0507,0.0,1.981136038,147.9949021,2.49,'11111222,11111222,11111222' 
TABS,ioos:station:wmo:42044:1,2012-11-04T15:00:00Z,26.1914,-97.0507,0.0,2.268501708,155.2427681,3.03,'11111222,11111222,11111222' 
TABS,ioos:station:wmo:42044:1,2012-11-04T15:30:00Z,26.1914,-97.0507,0.0,1.703907274,153.1344596,2.3,'11111222,11111222,11111222' 
TABS,ioos:station:wmo:42044:1,2012-11-04T16:00:00Z,26.1914,-97.0507,0.0,1.594772711,190.1122271,2.09,'11111222,11111222,11111222' 
TABS,ioos:station:wmo:42044:1,2012-11-04T16:30:00Z,26.1914,-97.0507,0.0,1.28082005,137.2150656,1.95,'11111222,11111222,11111222' 
TABS,ioos:station:wmo:42044:1,2012-11-04T17:00:00Z,26.1914,-97.0507,0.0,1.531176019,145.3761363,2.23,'11111222,11111222,11111222' 
TABS,ioos:station:wmo:42044:1,2012-11-04T17:30:00Z,26.1914,-97.0507,0.0,1.967587355,137.4719747,2.48,'11111222,11111222,11111222' 
TABS,ioos:station:wmo:42044:1,2012-11-04T18:00:00Z,26.1914,-97.0507,0.0,2.351701512,119.8358902,3.01,'11111222,11111222,11111222' 
TABS,ioos:station:wmo:42044:1,2012-11-04T18:30:00Z,26.1914,-97.0507,0.0,1.83521116,106.4603972,2.99,'11111222,11111222,11111222' 